Young Endeavour — VMGW — position and weather

sailwx.info

Track history (hours):
 
Tides and Currents Weather Stations Pressure Air Temp Water Temp Dewpoint Dewpoint Depression Visibility Wind Speed Wind Dir Waves Ship Positions

Young Endeavour (Australia)

Ship's website: http://www.youngendeavour.gov.au/

Last reported at 2018-Jan-18 07:18 UTC. Time now 2018-Jan-18 17:50 UTC.
Position S 37°56' E 149°33'.

Length 44 m; beam 7.8 m; draft 4 m.

Type: Sailing vessel. MMSI: 503071000.

Date/timePositionNaut miles runAvg speedWind from/ knotsBaromVisibWave heightAir tempDewpointWater temp
2018-Jan-18 07:18S 37°56' E 149°33'1 4.8
2018-Jan-18 07:00S 37°57' E 149°31'3 5.0
2018-Jan-18 06:30S 37°59' E 149°29'3 5.2
2018-Jan-18 05:59S 38°00' E 149°26'3 5.7
2018-Jan-18 05:28S 38°02' E 149°23'3 5.5
2018-Jan-18 04:59S 38°04' E 149°21'3 5.6
2018-Jan-18 04:30S 38°06' E 149°18'3 6.1
2018-Jan-18 03:59S 38°08' E 149°15'4 6.4
2018-Jan-18 03:24S 38°11' E 149°12'3 6.4
2018-Jan-18 02:59S 38°12' E 149°09'3 6.4
2018-Jan-18 02:29S 38°14' E 149°06'3 6.5
2018-Jan-18 02:00S 38°16' E 149°03'3 6.3
2018-Jan-18 01:30S 38°19' E 149°00'3 6.3
2018-Jan-18 01:00S 38°21' E 148°57'6 6.0
2018-Jan-18 00:00S 38°25' E 148°52'1 6.0
2018-Jan-17 23:48S 38°26' E 148°51'  
2018-Jan-08 14:52S 39°07' E 146°06'  
Track history (hours):
 
Tides and Currents Weather Stations Pressure Air Temp Water Temp Dewpoint Dewpoint Depression Visibility Wind Speed Wind Dir Waves Ship Positions

Young Endeavour (Australia)

Ship's website: http://www.youngendeavour.gov.au/

Last reported at 2018-Jan-18 07:18 UTC. Time now 2018-Jan-18 17:50 UTC.
Position S 37°56' E 149°33'.

Length 44 m; beam 7.8 m; draft 4 m.

Type: Sailing vessel. MMSI: 503071000.

Date/timePositionNaut miles runAvg speedWind from/ knotsBaromVisibWave heightAir tempDewpointWater temp
2018-Jan-18 07:18S 37°56' E 149°33'1 4.8
2018-Jan-18 07:00S 37°57' E 149°31'3 5.0
2018-Jan-18 06:30S 37°59' E 149°29'3 5.2
2018-Jan-18 05:59S 38°00' E 149°26'3 5.7
2018-Jan-18 05:28S 38°02' E 149°23'3 5.5
2018-Jan-18 04:59S 38°04' E 149°21'3 5.6
2018-Jan-18 04:30S 38°06' E 149°18'3 6.1
2018-Jan-18 03:59S 38°08' E 149°15'4 6.4
2018-Jan-18 03:24S 38°11' E 149°12'3 6.4
2018-Jan-18 02:59S 38°12' E 149°09'3 6.4
2018-Jan-18 02:29S 38°14' E 149°06'3 6.5
2018-Jan-18 02:00S 38°16' E 149°03'3 6.3
2018-Jan-18 01:30S 38°19' E 149°00'3 6.3
2018-Jan-18 01:00S 38°21' E 148°57'6 6.0
2018-Jan-18 00:00S 38°25' E 148°52'1 6.0
2018-Jan-17 23:48S 38°26' E 148°51'  
2018-Jan-08 14:52S 39°07' E 146°06'  

Dump ship's entire track history